GSAT 0209 (PRN E09)

Last updated on Sun May 29 2016 02:47:02 GMT+0100 (British Summer Time)

1 41174U 15079A 16149.57526485 .00000049 00000-0 00000+0 0 9994 2 41174 54.9442 202.3774 0005506 272.4685 66.1105 1.70474222 2765
UTC large
Height (km)
Speed (km/s)
/
Latitude / Longitude
Inclination (degrees)
Orbital Period (minutes)
Azimuth
Elevation
Range (km)
Doppler Factor

Next 0 passes for location: London (51.5072 / 0.1276)

Sorry there are no passes over London.